• Join FlightAware (Why Join?)
  • Login
  • US Flag 
12:23AM EST


 

Airport Tracker/Info


-or-


 

Live Flight TrackerFlight Track Log ✈ AWI3680 ✈ 02-Jul-2013 ✈ KPHL - KALB

Flight Track Log - Related Links

Times and Time Zones

All times are in EDT time to prevent confusion due to time zone crossing. See the AWI3680 flight status page for this flight to view local times or setup timezone preferences in your user account.

Time Position Orientation Groundspeed Altitude Reporting Facility
EDT Latitude Longitude Course Direction KTS MPH feet Rate Location/Type
06:42PM 39.8500 -75.2833 105° East 146 168 800  Level Philadelphia TRACON
06:44PM 39.8167 -75.3167 218° Southwest 154 177 4,500 2,478 Climbing Philadelphia TRACON
06:45PM 39.8264 -74.9696 123° Southeast  Level FlightAware Approximate
06:45PM 39.7833 -75.3500 218° Southwest 159 183 6,500  Level Philadelphia TRACON
06:46PM 39.8167 -74.8809 90° East  Level FlightAware Approximate
06:46PM 39.7500 -75.2833 123° Southeast 286 329 7,700  Level Philadelphia TRACON
06:47PM 39.8016 -74.7910 105° East  Level FlightAware Approximate
06:47PM 39.7500 -75.1833 90° East 317 365 9,500  Level Philadelphia TRACON
06:48PM 39.7836 -74.7016 105° East  Level FlightAware Approximate
06:48PM 39.7697 -74.9761 83° East 347 399 12,000  Level New York Center
06:49PM 39.7750 -74.8225 87° East 362 417 13,200 1,279 Climbing New York Center
06:50PM 39.8269 -74.7036 60° Northeast 378 435 14,600 1,412 Climbing New York Center
06:51PM 39.9156 -74.6114 39° Northeast 372 428 16,000 1,220 Climbing New York Center
06:52PM 40.0019 -74.5158 40° Northeast 382 440 17,000 984 Climbing New York Center
06:53PM 40.0925 -74.4203 39° Northeast 412 474 18,000 934 Climbing New York Center
06:54PM 40.1783 -74.3378 36° Northeast 425 489 18,900 915 Climbing New York Center
06:55PM 40.2814 -74.2372 37° Northeast 425 489 19,800 1,692 Climbing New York Center
06:56PM 40.3786 -74.1983 17° North 410 472 22,200 1,785 Climbing New York Center
06:57PM 40.4839 -74.1600 15° North 393 452 23,400 893 Climbing New York Center
06:58PM 40.5717 -74.0714 37° Northeast 385 443 24,000 225 Climbing New York Center
07:00PM 40.7300 -73.8972 40° Northeast 408 470 24,000  Level Boston Center
07:01PM 40.8272 -73.7869 41° Northeast 434 499 24,000  Level Boston Center
07:02PM 40.9053 -73.6950 42° Northeast 448 516 24,000 -500 Level Boston Center
07:03PM 41.0256 -73.5572 41° Northeast 469 540 23,000 -550 Descending Boston Center
07:04PM 41.1533 -73.5125 15° North 458 527 22,900 -250 Descending Boston Center
07:05PM 41.2867 -73.5119 360° North 453 521 22,500 -450 Descending Boston Center
07:06PM 41.4200 -73.5114 360° North 458 527 22,000 -650 Descending Boston Center
07:07PM 41.5261 -73.5131 359° North 465 535 21,200 -950 Descending Boston Center
07:08PM 41.6636 -73.5183 358° North 465 535 20,100 -1,250 Descending Boston Center
07:09PM 41.8033 -73.5178 360° North 455 524 18,700 -2,000 Descending Boston Center
07:10PM 41.9117 -73.5225 358° North 441 507 16,100 -2,974 Descending Boston Center
07:11PM 42.0325 -73.5275 358° North 423 487 13,000 -2,713 Descending Boston Center
07:12PM 42.1453 -73.5208 North 405 466 10,900 -1,104 Descending Boston Center
07:13PM 42.2514 -73.5311 356° North 397 457 10,700 -443 Descending Boston Center
07:14PM 42.3531 -73.5864 338° Northwest 390 449 10,000 -1,077 Descending Boston Center
07:15PM 42.4508 -73.5881 359° North 304 350 8,600 -1,488 Descending Boston Center
07:16PM 42.5342 -73.5925 358° North 289 333 7,000 -1,636 Descending Boston Center
07:17PM 42.6111 -73.6164 347° North 286 329 5,300 -1,700 Descending Boston Center